CZ-3C DEB, 40207

Orbit data source: Space-Track

CZ-3C DEB, 40207 is space debris in HEO originally from a launch on Fri, 24 Feb 2012 UTC launched from the Xichang Space Center, China (XSC). Debris objects in space refer to the collection of defunct objects orbiting the Earth. Examples of debris include non-operational satellites, rocket bodies, and fragments generated from explosions, collisions, or faulty payload assembly.

Loading next visibility...
Identifier
40207, 2012-008S
Orbit
HEO
Last TLE update
1 day ago
Origin
Manufacturer
CALT
Mission
Spacecraft
Bus & Motor
Unknown
Mass
Unknown
Launch date (UTC)
2012-02-24 (13 years ago)
Launch vehicle
Unknown
Launch site
Xichang Space Center, China (XSC)
Object type
Payload
Rocket body
Debris
Shape & HBR
Unknown
Radar Cross Section
Medium (>0.1 m² and <1 m²)

Expand to show TLE details & history

TLE from 1 day ago
0 CZ-3C DEB
1 40207U 12008S   25127.89245859  .00000186  00000-0  22759-2 0  9993
2 40207  18.8951  97.0492 7215639 113.1422 334.2032  2.23595296 86335
Epoch: 2025-05-07T21:25Z
Definitive object data (Epoch: 2025-05-07T21:25:08.422Z)
Latitude
-0.00005°
Longitude
-90.23388°
Altitude
10,122.194 km
Speed
5.672 km/s
True Right ascension
06h 28m 05s
True Declination
0° 00' 00"
Sunlit
Object was in daylight at TLE epoch
Visualization TLE readout
Latitude
6.53338°
Longitude
-71.26714°
Altitude
5,989.165 km
Speed
6.951 km/s
Apparent Right ascension
06h 19m 48s
Apparent Declination
-11° 06' 03"
Sunlit
Object is in daylight
Visualization observer readout
Local Sidereal Time
14:03:00
Azimuth
278.138° WNW
Elevation
-26.813°
Doppler factor
1
Orbital elements
Apogee altitude
36,158.492 km
Perigee altitude
501.499 km
Semi-major axis
24,708.132 km
Eccentricity
0.7215639
Inclination
18.8951°
RAAN
97.0492°
Arg. of periapsis
113.1422°
True anomaly
247.11798°
Mean anomaly
334.2032°
Eccentric anomaly
297.54785°
Mean motion
0.55883 °/min
BSTAR
0.0022759
Orbital period
644.2 mins
Loading maneuver chart data...
Loading SW <> Apogee altitude chart data...
Loading historical data...
Loading historical data...
Loading historical data...
Loading historical data...
Loading historical data...
Loading historical data...
Loading historical data...

CZ-3C DEB Visibility forecast

Observer location: undefined°, undefined°

Span
Click to sort rows by Start time (UTC) header in descending order
Start Az.
Max El. time (UTC)
Max El. Az.
Max El.
End time (UTC)
End Az.
5 mins2025-05-10 03:39:15.245Z226.386° WSW2025-05-10 03:42:15.245Z208.494° SW11.675°2025-05-10 03:44:15.245Z189.666° SSW
|